Погода в Медвежьегорске

Погода в Медвежьегорске : погода сейчас, прогноз погоды и архив. Всё, что Вы хотите узнать о погоде в Медвежьегорске!

Хотите узнать прогноз погоды в Медвежьегорске? Тогда Вам сюда: Погода в Медвежьегорске

Поиск расширенной информации на нашем сайте:

Другие новости

Новости СМИ2

Главная страница сайта

Новости сайта

03.07.2017

Напоминаем, что на нашем специализированном сайте Метеоцентр.Азия вы можете получить высокодетализированные автоматические прогнозы погоды по пунктам России, СНГ и мира в авиационном формате (включающие направление и скорость ветра, видимость, явления погоды, количество и форму облачности, нижнюю и верхнюю границу облачности).


Погода в Медвежьегорске - сегодня

Время (UTC), дата Ветер
(°,м/с) 
Видим.   Явления Облачность Т
(°С)
Тd
(°С)
f(%) Тe
(°С)
Pmin
(гПа)
dP
(гПа)
Po
(мм)
O2
(г/м3)
Тmin Tmax R s Состояние
почвы
15 21.09.17 130 (ЮВ) 20000 м    10/10 900 м 
[Sc]
+8.5 +3.7 72 +10  1037.3  0.9  770  300           
18 21.09.17 тихо ()   10 км    10/10 720 м 
[Sc]
+7.5 +3.7 77 +8  1037.4  0.1  770  302    +9.5       
21 21.09.17 140 (ЮВ) 10 км    10/10 870 м 
[Sc]
+7.7 +4.6 81 +9  1038.2  0.9  771  301           
00 22.09.17 140 (ЮВ) 10 км    10/10 1000 м 
[Sc]
+8.1 +4.8 80 +9  1038.7  0.5  771  301           
03 22.09.17 170 (Ю) 20000 м    10/10 870 м 
[Sc]
+7.6 +5.1 84 +9  1038.2  -0.6  771  301  +7.2         
06 22.09.17 140 (ЮВ) 20000 м  {ливн. осадки}  9/9 660 м кучево-дожд. 
[Cb cap]
+7.9 +5.4 84 +9  1037.6  -0.6  771  301  +7.1    0.0    влажная 
09 22.09.17 140 (ЮВ) 14000 м    10/10 300 м 
[St]
+8 +6.1 88 +9  1037.3  -0.3  770  301           
12 22.09.17 140 (ЮВ) 20000 м  слаб. ливневой дождь  10/10 420 м кучево-дожд. 
[Cb cap]
+8.5 +7.2 92 +10  1036.5  -0.3  770  300           
15 22.09.17 140 (ЮВ) 30000 м  слаб. ливневой дождь  10/10 400 м кучево-дожд. 
[Cb cap]
+8.4 +7.8 96 +9  1035.9  -0.5  769  299      0.6     
18 22.09.17 тихо ()   10 км  {ливн. осадки}  10/10 180 м кучево-дожд. 
[Cb cap]
+8.1 +7.6 97 +8  1035.9  769  300    +8.7  0.6     
21 22.09.17 310 (СЗ) 1000 м  дымка  ясно 
+5.6 +5.4 99 +6  1036.4  0.3  770  303           
00 23.09.17 310 (СЗ) 1000 м  дымка  8/8 240 м 
[St]
+5.7 +5.6 99 +7  1037  0.7  770  303           
03 23.09.17 тихо ()   6000 м  дымка  10/10 180 м 
[St]
+6.5 +6.4 99 +7  1037.3  0.3  770  302  +4.1    0.0     
06 23.09.17 тихо ()   2800 м  дымка  10/10 180 м 
[St]
+6.3 +6.1 99 +6  1037.8  0.4  771  303  +4.1        влажная 
09 23.09.17 160 (Ю) 35000 м    10/10 300 м 
[Frnb]
+8.4 +6.9 90 +9  1038.2  0.5  771  300           
12 23.09.17 150 (ЮВ) 20000 м    ясно 
+12.3 +6.8 69 +14  1037.6  -0.4  771  296           
15 23.09.17 тихо ()   20000 м    3/0 верхняя 
[Ci fib]
+9 +7 87 +9  1037.4  -0.3  770  299           
18 23.09.17 300 (СЗ) 10 км    ясно 
+4.9 +4.6 98 +6  1038.3  0.7  771  304    +12.3       
21 23.09.17 тихо ()   10 км    ясно 
+3.4 +3.4 100 +3  1038.6  0.3  771  306           
00 24.09.17 тихо ()   10 км    10/10 120 м 
[St]
+5.4 +5.4 100 +5  1038.6  771  304           
03 24.09.17 тихо ()   0200 м  туман  ?/?  
+6.6 +6.6 100 +7  1038.8  0.3  771  302  +2.5         
06 24.09.17 тихо ()   0200 м  туман  ?/?  
+8.3 +8.3 100 +8  1039.3  0.6  772  300  +2.5        влажная 
09 24.09.17 080 (В) 24000 м  в посл. час туман  10/10 100 м 
[St]
+9.9 +9.3 96 +11  1039.5  0.2  772  299           
12 24.09.17 110 (В) 16000 м  {туман}  9/0 средняя, верхняя 
[Ac cast|Ci fib]
+11.5 +10.5 94 +14  1039.1  -0.4  772  296           
15 24.09.17 тихо ()   2400 м  в посл. час туман  8/0 верхняя 
[Cc]
+10.7 +10.7 100 +12  1039.2  0.1  772  297           
Время (UTC), дата Ветер
(°,м/с) 
Видим.   Явления Облачность Т
(°С)
Тd
(°С)
f(%) Тe
(°С)
Pmin
(гПа)
dP
(гПа)
Po
(мм)
O2
(г/м3)
Тmin Tmax R s Состояние
почвы

Для получения пояснительной информации подведите курсор к названию столбца.

ПОГОДА в Медвежьегорске - архив

Всё, что Вы хотите узнать о погоде в Медвежьегорске - удобно и подробно!

Выберите нужную дату (начиная с 1 января 2015* года) и нажмите кнопку "Найти".
Будут отображены архивные сводки погоды по пункту Медвежьегорск, начиная с указанной даты.


Отображать данные в формате CSV (для использования в таблицах Excel)


Внимание! Наш архив погоды предназначен исключительно для личного некоммерческого использования в познавательных целях. Если Вам необходимы официальные справки о состоянии погоды (для производственных, юридических, коммерческих и т.п. целей), обращайтесь в органы Росгидромета.

*Примечание: данная дата относится к архиву по метеостанциям СССР (Россия, СНГ, Балтия).
Архив по метеостанциям Зарубежной Европы и Азии (кроме Китая) хранится 10 дней, по другим регионам земного шара (Китай, Африка, Америка, Австралия, Океания) - 1 день.

Медвежьегорск - район местоположения метеостанции


Название, широта, долгота, высота метеостанции:
Медвежьегорск 62.9°ш. 34.4°д. 81 м над ур. моря [Российская Федерация]

Дополнительная информация

В oтличие oт бoльшинства пoгoдных сайтoв мы публикуем пoдрoбную метеoинфoрмацию в детальнoм прoфессиoнальнoм фoрмате.

Характеристики температуры и влажнoсти вoздуха измеряются на высoте 2 м в тени вдали oт зданий и деревьев.
Скoрoсть ветра измеряется на высoте 10 м (на урoвне рoста челoвека скoрoсть ветра ниже в 1.5-2 раза). Если метеoстанция нахoдится в гoрoде или в лесу, тo скoрoсть ветра занижена на 2-4 м/с пo сравнению с oткрытым местoм. Скoрoсть ветра над акватoриями крупных рек и oзёр, а также на вершинах хoлмoв на 2-5 м/с выше, чем в oбычных услoвиях.
Атмoсфернoе давление в разных тoчках местнoсти мoжет значительнo oтличаться oт давления на метеoстанции, в зависимoсти oт услoвий рельефа (при пoдъёме на 10 м давление пoнижается примернo на 1 мм рт.ст.).